Terminal Aerodrome Forecast
Issued by NWS

Home | Current Version | Previous Version | Text Only | Print | Product List | Glossary On
Versions: 1 2 3 4 5 6 7 8 9 10 11 12 13 14 15 16
000
FTUS43 KAPX 012300
TAFTVC
TAF
KTVC 012328Z 0200/0224 02006KT P6SM SCT070
     FM020100 00000KT P6SM SKC
     FM021700 02007KT P6SM FEW060=

USA.gov is the U.S. government's official web portal to all federal, state and local government web resources and services.